Change the Weather History Date:

Sunday, January 6, 2013

  Actual Average Record
Temperature  
Mean Temperature 14 °F 25 °F  
Max Temperature 29 °F 36 °F 53 °F (2015)
Min Temperature -1 °F 13 °F -36 °F (1890)
Degree Days  
Heating Degree Days 51 40  
Month to date heating degree days 390 240  
Since 1 July heating degree days 2838 3188  
Cooling Degree Days 0 0  
Month to date cooling degree days 0 0  
Year to date cooling degree days 0 0  
Moisture  
Dew Point 7 °F    
Average Humidity 74    
Maximum Humidity 88    
Minimum Humidity 60    
Precipitation  
Precipitation 0.00 in 0.04 in 0.56 in (1975)
Month to date precipitation T 0.24  
Year to date precipitation T 0.24  
Snow  
Snow 0.00 in 0.40 in 6.00 in (1898)
Month to date snowfall T 2.2  
Since 1 July snowfall 23.9 17.8  
Snow Depth 8.00 in    
Sea Level Pressure  
Sea Level Pressure 30.24 in    
Wind  
Wind Speed 3 mph (ENE)    
Max Wind Speed 9 mph    
Max Gust Speed 12 mph    
Visibility 9 miles    
Events      
T = Trace of Precipitation, MM = Missing Value Source: NWS Daily Summary

Daily Weather History Graph

Daily Weather History Graph

Search for Another Location

Airport or City:

Trip Planner

Search our weather history database for the weather conditions in past years. The results will help you decide how hot, cold, wet, or windy it might be!

Date:

Astronomy

Jan. 06, 2013 Rise Set
Actual Time 7:07 AM PST 4:31 PM PST
Civil Twilight 6:36 AM PST 5:01 PM PST
Nautical Twilight 6:02 AM PST 5:35 PM PST
Astronomical Twilight 5:29 AM PST 6:09 PM PST
Moon 1:26 AM PST (1/6) 12:01 PM PST (1/6)
Length of Visible Light 10h 24m
Length of Day
9h 23m
Waning Crescent, 32% of the Moon is Illuminated
Jan 6
Waning Crescent
Jan 11
New
Jan 18
First Quarter
Jan 26
Full
Feb 3
Last Quarter

Hourly Weather History & Observations

Time (PST) Temp. Windchill Dew Point Humidity Pressure Visibility Wind Dir Wind Speed Gust Speed Precip Events Conditions
12:56 AM 9.0 °F 0.6 °F 3.0 °F 77% 30.35 in 10.0 mi NE 4.6 mph - N/A   Overcast
2:56 AM 10.9 °F - 3.9 °F 73% 30.32 in 10.0 mi Calm Calm - N/A   Overcast
3:56 AM 10.9 °F 2.9 °F 3.9 °F 73% 30.30 in 10.0 mi East 4.6 mph - N/A   Clear
4:56 AM 10.9 °F 4.7 °F 5.0 °F 77% 30.30 in 10.0 mi NNE 3.5 mph - N/A   Clear
5:56 AM 12.0 °F 5.9 °F 6.1 °F 77% 30.29 in 10.0 mi East 3.5 mph - N/A   Clear
6:56 AM 12.0 °F 2.7 °F 6.1 °F 77% 30.28 in 10.0 mi ENE 5.8 mph - N/A   Mostly Cloudy
7:56 AM 14.0 °F 8.2 °F 8.1 °F 77% 30.26 in 10.0 mi North 3.5 mph - N/A   Overcast
8:56 AM 16.0 °F 7.4 °F 9.0 °F 74% 30.29 in 10.0 mi WNW 5.8 mph - N/A   Partly Cloudy
9:56 AM 18.0 °F 12.7 °F 10.9 °F 74% 30.27 in 10.0 mi South 3.5 mph - N/A   Clear
10:56 AM 21.9 °F - 12.0 °F 66% 30.23 in 10.0 mi Calm Calm - N/A   Clear
11:56 AM 25.0 °F - 12.9 °F 60% 30.19 in 10.0 mi Calm Calm - N/A   Clear
12:56 PM 27.0 °F - 15.1 °F 61% 30.17 in 10.0 mi Calm Calm - N/A   Clear
1:56 PM 27.0 °F 21.6 °F 15.1 °F 61% 30.16 in 10.0 mi NE 4.6 mph - N/A   Clear
2:56 PM 27.0 °F 21.6 °F 15.1 °F 61% 30.15 in 10.0 mi ENE 4.6 mph - N/A   Clear
3:56 PM 25.0 °F - 15.1 °F 66% 30.17 in 10.0 mi Calm Calm - N/A   Clear
4:56 PM 19.0 °F 12.3 °F 12.0 °F 74% 30.19 in 10.0 mi East 4.6 mph - N/A   Clear
5:56 PM 10.0 °F 3.6 °F 6.1 °F 84% 30.24 in 10.0 mi West 3.5 mph - N/A   Clear
6:56 PM 10.0 °F -0.9 °F 7.0 °F 87% 30.27 in 10.0 mi ENE 6.9 mph - N/A   Clear
7:56 PM 7.0 °F - 3.9 °F 87% 30.29 in 10.0 mi Calm Calm - N/A   Clear
8:56 PM 8.1 °F - 3.9 °F 83% 30.29 in 9.0 mi Calm Calm - N/A   Clear
9:56 PM 7.0 °F 0.1 °F 3.0 °F 84% 30.30 in 8.0 mi East 3.5 mph - N/A   Clear
10:56 PM 1.0 °F - -2.9 °F 83% 30.32 in 10.0 mi Calm Calm - N/A   Clear
11:29 PM 1.4 °F -8.3 °F -0.4 °F 92% 30.13 in 0.8 mi East 4.6 mph - N/A   Mist
11:33 PM 1.4 °F -8.3 °F -0.4 °F 92% 30.14 in 1.8 mi NNE 4.6 mph - N/A   Partly Cloudy
11:40 PM 1.4 °F - -0.4 °F 92% 30.14 in 9.0 mi Calm Calm - N/A   Partly Cloudy
11:56 PM 3.0 °F -4.4 °F -0.9 °F 84% 30.32 in 10.0 mi East 3.5 mph - N/A   Clear